Kirksville, MO

1:37 AM CDT on April 30, 2017 (GMT -0500)
Kirksville Regional

Weather History for KIRK - July, 2012

Change the Weather History Date:

Thursday, July 19, 2012

  Actual Average Record
Temperature  
Mean Temperature 85 °F 75 °F  
Max Temperature 99 °F 86 °F 111 °F (1934)
Min Temperature 71 °F 65 °F 53 °F (1947)
Degree Days  
Heating Degree Days 0 0  
Month to date heating degree days 0 0  
Since 1 June heating degree days 10 16  
Since 1 July heating degree days 0 0  
Cooling Degree Days 20 10  
Month to date cooling degree days 336 184  
Year to date cooling degree days 748 438  
Since 1 June cooling degree days 604 376  
Growing Degree Days 37 (Base 50)    
Moisture  
Dew Point 64 °F    
Average Humidity 54    
Maximum Humidity 79    
Minimum Humidity 28    
Precipitation  
Precipitation 0.00 in 0.15 in 2.32 in (2015)
Month to date precipitation 0.05 2.71  
Year to date precipitation 14.40 21.64  
Sea Level Pressure  
Sea Level Pressure 29.93 in    
Wind  
Wind Speed 9 mph (NW)    
Max Wind Speed 18 mph    
Max Gust Speed 25 mph    
Visibility 10 miles    
Events      
T = Trace of Precipitation, MM = Missing Value Source: NWS Daily Summary

Daily Weather History Graph

Daily Weather History Graph

Search for Another Location

Airport or City:

Trip Planner

Search our weather history database for the weather conditions in past years. The results will help you decide how hot, cold, wet, or windy it might be!

Date:

Astronomy

Jul. 19, 2012 Rise Set
Actual Time 5:57 AM CDT 8:35 PM CDT
Civil Twilight 5:25 AM CDT 9:06 PM CDT
Nautical Twilight 4:46 AM CDT 9:45 PM CDT
Astronomical Twilight 4:01 AM CDT 10:30 PM CDT
Moon 6:32 AM CDT (7/19) 8:41 PM CDT (7/19)
Length of Visible Light 15h 40m
Length of Day
14h 37m
New Moon, 0% of the Moon is Illuminated
Jul 19
New Moon
Jul 26
First Quarter
Aug 1
Full
Aug 9
Last Quarter
Aug 17
New

Hourly Weather History & Observations

Time (CDT) Temp. Heat Index Dew Point Humidity Pressure Visibility Wind Dir Wind Speed Gust Speed Precip Events Conditions
12:55 AM 87.1 °F 88.3 °F 64.0 °F 46% 29.85 in 10.0 mi SW 6.9 mph - N/A   Overcast
1:55 AM 87.1 °F 87.8 °F 63.0 °F 44% 29.85 in 10.0 mi SW 8.1 mph 18.4 mph N/A   Partly Cloudy
2:55 AM 86.0 °F 86.8 °F 63.0 °F 46% 29.85 in 10.0 mi WSW 6.9 mph - N/A   Clear
3:55 AM 82.0 °F 83.0 °F 62.1 °F 51% 29.87 in 10.0 mi Calm Calm - N/A   Partly Cloudy
4:55 AM 80.1 °F 82.1 °F 66.0 °F 62% 29.89 in 10.0 mi WSW 5.8 mph - N/A   Clear
5:55 AM 75.9 °F - 66.0 °F 71% 29.91 in 10.0 mi SSW 3.5 mph - N/A   Clear
6:55 AM 78.8 °F - 66.2 °F 65% 29.94 in 10.0 mi West 6.9 mph - N/A   Clear
7:55 AM 80.1 °F 82.3 °F 66.9 °F 64% 29.94 in 10.0 mi WNW 8.1 mph - N/A   Clear
8:55 AM 82.9 °F 86.5 °F 69.1 °F 63% 29.96 in 10.0 mi NNW 10.4 mph - N/A   Clear
9:55 AM 88.0 °F 92.1 °F 69.1 °F 53% 29.96 in 10.0 mi NW 6.9 mph - N/A   Clear
10:55 AM 91.0 °F 95.2 °F 68.0 °F 47% 29.96 in 10.0 mi West 8.1 mph - N/A   Clear
11:55 AM 91.9 °F 95.4 °F 66.9 °F 44% 29.96 in 10.0 mi Variable 4.6 mph - N/A   Clear
12:55 PM 95.0 °F 97.0 °F 64.0 °F 36% 29.95 in 10.0 mi NW 5.8 mph - N/A   Clear
1:55 PM 98.1 °F 98.6 °F 61.0 °F 29% 29.94 in 10.0 mi NNW 10.4 mph 19.6 mph N/A   Clear
2:55 PM 99.0 °F 99.5 °F 60.1 °F 28% 29.93 in 10.0 mi NW 11.5 mph - N/A   Clear
3:55 PM 99.0 °F 99.5 °F 60.1 °F 28% 29.92 in 10.0 mi North 15.0 mph 19.6 mph N/A   Clear
4:55 PM 98.1 °F 97.7 °F 59.0 °F 27% 29.92 in 10.0 mi NNW 11.5 mph 18.4 mph N/A   Clear
5:55 PM 96.1 °F 96.4 °F 61.0 °F 31% 29.91 in 10.0 mi North 13.8 mph - N/A   Clear
6:55 PM 91.9 °F 92.9 °F 63.0 °F 38% 29.92 in 10.0 mi North 17.3 mph 23.0 mph N/A   Clear
7:55 PM 87.1 °F 88.3 °F 64.0 °F 46% 29.94 in 10.0 mi NNE 17.3 mph - N/A   Clear
8:55 PM 82.0 °F 83.0 °F 62.1 °F 51% 29.95 in 10.0 mi North 10.4 mph - N/A   Clear
9:55 PM 75.9 °F - 63.0 °F 64% 29.97 in 10.0 mi NNE 5.8 mph - N/A   Clear
10:55 PM 75.0 °F - 64.9 °F 71% 30.01 in 10.0 mi NNE 6.9 mph - N/A   Clear
11:55 PM 73.9 °F - 66.0 °F 76% 30.03 in 10.0 mi NNE 5.8 mph - N/A   Clear